User: anonymous   Login
Location: Unspecified
(51.1400°N, 0.0000°E)
Time: 20:29:00
(UTC+00:00)
Language:

Cosmos 1992 Rocket - Orbit

View from above orbital plane
View from above orbital plane
View from above satellite
View from above satellite

Ground track
Ground track

The orbit is defined by the following mean orbital elements,

1 19770U          26088.20318345 +.00000000 +00000-0 +93914-4 0 00007
2 19770  74.0430 254.9340 0005609 260.9053 271.6876 14.40316846    00
Epoch (UTC): 29 March 2026 04:52:35
Eccentricity: 0.0005609
inclination: 74.0430°
perigee height: 753 km
apogee height: 761 km
right ascension of ascending node: 254.9340°
argument of perigee: 260.9053°
revolutions per day: 14.40316846
mean anomaly at epoch: 271.6876°

The dashed part of the orbit path shows where the satellite is in the earth's shadow,  

DLR